Hoquiam, WA
on Wednesday, January 9, 2013

Wednesday
Previous Day Next Day
Daily Summary
 ActualAverageRecord
Temperature
Mean Temperature °F 42°F  
Max Temperature 46°F 47°F 56°F (2010)
Min Temperature 35°F 38°F 17°F (1974)
Degree Days
Heating Degree Days 24 23  
Month to date heating degree days 207  
Cooling Degree Days 0 0  
Month to date cooling degree days 0  
Year to date cooling degree days 0  
Moisture
Dew Point 39°F   
Average Humidity 89    
Maximum Humidity 100    
Minimum Humidity 73    
Precipitation
Precipitation 1.08 in 0.37 in 2.59 in (2006)
Month to date precipitation 3.16  
Year to date precipitation 3.16  
Wind
Wind Speed 11 mph   
Max Wind Speed 21 mph   
Max Gust Speed 30 mph   
Visibility 8 miles   
Events Rain   

Key: T is trace of precipitation, MM is missing value
Source: NWS Daily Summary
Time(PST)TemperatureDew PointHumidity Pressure Visibility Wind DirectionWind SpeedGust SpeedPrecipitationEvents Conditions
12:07 AM 46.4°F 44.6°F 93% 29.78 in 3.0 miles SW 18.4 mph - 0.12 in Rain Rain
12:16 AM 46.4°F 46.4°F 100% 29.79 in 4.0 miles SW 15.0 mph - 0.16 in Rain Rain
12:20 AM 46.4°F 46.4°F 100% 29.78 in 3.0 miles WSW 13.8 mph - 0.18 in Rain Rain
12:28 AM 46.4°F 46.4°F 100% 29.78 in 4.0 miles WSW 10.4 mph - 0.20 in Rain Light Rain
12:36 AM 46.4°F 44.6°F 93% 29.78 in 6.0 miles WSW 12.7 mph - 0.21 in Rain Light Rain
12:53 AM 46.9°F 45.0°F 93% 29.79 in 6.0 miles WSW 15.0 mph - 0.23 in Rain Light Rain
1:14 AM 46.4°F 42.8°F 87% 29.78 in 6.0 miles West 19.6 mph - 0.04 in Rain Light Rain
1:53 AM 45.0°F 43.0°F 93% 29.79 in 4.0 miles WSW 6.9 mph - 0.12 in Rain Light Rain
2:27 AM 44.6°F 42.8°F 93% 29.78 in 5.0 miles WSW 13.8 mph 18.4 mph 0.08 in Rain Light Rain
2:53 AM 44.1°F 39.9°F 85% 29.80 in 4.0 miles SW 11.5 mph - 0.17 in Rain Rain
3:51 AM 44.6°F 39.2°F 81% 29.75 in 7.0 miles South 8.1 mph - 0.15 in Rain Light Rain
3:53 AM 44.1°F 39.9°F 85% 29.76 in 7.0 miles South 6.9 mph - 0.15 in Rain Light Rain
4:19 AM 44.6°F 41.0°F 87% 29.74 in 6.0 miles SSE 4.6 mph - 0.07 in Rain Light Rain
4:53 AM 44.1°F 39.9°F 85% 29.75 in 7.0 miles West 10.4 mph - 0.16 in Rain Light Rain
5:11 AM 42.8°F 39.2°F 87% 29.73 in 10.0 miles WSW 11.5 mph - 0.01 in Rain Light Rain
5:26 AM 42.8°F 39.2°F 87% 29.73 in 10.0 miles WSW 10.4 mph - 0.02 in Rain Light Rain
5:53 AM 43.0°F 39.9°F 89% 29.74 in 9.0 miles West 11.5 mph - 0.04 in Rain Light Rain
6:07 AM 42.8°F 39.2°F 87% 29.73 in 10.0 miles West 10.4 mph - 0.01 in Rain Light Rain
6:35 AM 42.8°F 39.2°F 87% 29.74 in 10.0 miles West 8.1 mph - 0.02 in Rain Light Rain
6:53 AM 43.0°F 39.9°F 89% 29.75 in 7.0 miles West 13.8 mph - 0.03 in Rain Light Rain
7:04 AM 42.8°F 39.2°F 87% 29.75 in 8.0 miles West 8.1 mph - 0.02 in Rain Light Rain
7:46 AM 42.8°F 41.0°F 93% 29.76 in 6.0 miles WNW 5.8 mph - 0.04 in Rain Light Rain
7:53 AM 43.0°F 41.0°F 93% 29.76 in 7.0 miles West 4.6 mph - 0.04 in Rain Light Rain
8:16 AM 42.8°F 39.2°F 87% 29.76 in 10.0 miles West 4.6 mph - 0.00 in   Overcast
8:34 AM 44.6°F 41.0°F 87% 29.77 in 10.0 miles WNW 9.2 mph - 0.00 in   Overcast
8:53 AM 42.8°F 39.2°F 87% 29.77 in 10.0 miles WNW 5.8 mph - N/A   Overcast
9:53 AM 44.1°F 39.9°F 85% 29.81 in 10.0 miles West 10.4 mph - 0.01 in   Mostly Cloudy
10:53 AM 44.1°F 39.0°F 82% 29.82 in 10.0 miles West 9.2 mph - 0.01 in   Overcast
11:43 AM 42.8°F 37.4°F 81% 29.82 in 2.5 miles West 20.7 mph 29.9 mph 0.03 in Rain Rain
11:51 AM 42.8°F 37.4°F 81% 29.82 in 6.0 miles West 12.7 mph 29.9 mph 0.03 in Rain Light Rain
11:53 AM 43.0°F 37.9°F 82% 29.84 in 9.0 miles West 9.2 mph 21.9 mph 0.03 in Rain Light Rain
12:53 PM 44.1°F 37.9°F 79% 29.84 in 10.0 miles West 12.7 mph 16.1 mph 0.01 in Rain Light Rain
1:53 PM 41.0°F 35.6°F 81% 29.86 in 8.0 miles WSW 20.7 mph 28.8 mph N/A Rain Light Rain
2:30 PM 41.0°F 35.6°F 81% 29.86 in 10.0 miles WSW 4.6 mph - 0.02 in   Overcast
2:53 PM 41.0°F 36.0°F 82% 29.87 in 10.0 miles SW 9.2 mph - 0.02 in   Scattered Clouds
3:53 PM 42.1°F 34.0°F 73% 29.89 in 6.0 miles West 5.8 mph - 0.01 in Rain Light Rain
4:53 PM 41.0°F 37.0°F 86% 29.91 in 10.0 miles NNW 11.5 mph 16.1 mph 0.00 in   Overcast
5:53 PM 37.0°F 34.0°F 89% 29.92 in 10.0 miles Calm Calm - N/A   Partly Cloudy
6:53 PM 36.0°F 34.0°F 93% 29.93 in 10.0 miles Calm Calm - N/A   Mostly Cloudy
7:53 PM 37.0°F 35.1°F 93% 29.95 in 9.0 miles West 4.6 mph - 0.01 in Rain Light Rain
8:03 PM 39.2°F 33.8°F 81% 29.94 in 9.0 miles WNW 5.8 mph - 0.00 in Rain Light Rain
8:28 PM 37.4°F 35.6°F 93% 29.94 in 10.0 miles Calm Calm - 0.02 in   Overcast
8:53 PM 36.0°F 34.0°F 93% 29.95 in 10.0 miles ENE 3.5 mph - 0.02 in   Partly Cloudy
9:53 PM 35.1°F 34.0°F 96% 29.96 in 9.0 miles NE 3.5 mph - N/A   Partly Cloudy
10:53 PM 35.1°F 35.1°F 100% 29.98 in 7.0 miles NNW 3.5 mph - N/A   Mostly Cloudy
11:08 PM 35.6°F 35.6°F 100% 29.96 in 4.0 miles Calm Calm - 0.02 in Rain Light Rain
11:30 PM 37.4°F 35.6°F 93% 29.95 in 10.0 miles ESE 6.9 mph - 0.02 in   Scattered Clouds
11:53 PM 37.0°F 35.1°F 93% 29.96 in 10.0 miles East 6.9 mph - 0.02 in   Mostly Cloudy
Moon Phase
Jan. 09 Jan. 11 Jan. 18 Jan. 26 Feb. 03
Sunrise:07:59 AM (PST) Moon Rise:05:45 AM (PST)1/9
Sunset:04:46 PM (PST) Moon Set:02:53 PM (PST)1/9

Copyright © 2014 The Weather Underground, Inc.